Weather History for Port Angeles, WA

Change the Weather History Date:

Saturday, December 28, 2013

  Actual Average Record
Temperature  
Mean Temperature 40 °F -  
Max Temperature 45 °F 43 °F 60 °F (1949)
Min Temperature 34 °F 32 °F 11 °F (1968)
Degree Days  
Heating Degree Days 26    
Moisture  
Dew Point 35 °F    
Average Humidity 88    
Maximum Humidity 97    
Minimum Humidity 74    
Precipitation  
Precipitation 0.00 in - - ()
Sea Level Pressure  
Sea Level Pressure 30.48 in    
Wind  
Wind Speed 5 mph (SSW)    
Max Wind Speed 9 mph    
Max Gust Speed -    
Visibility 10 miles    
Events      
Averages and records for this station are not official NWS values.
T = Trace of Precipitation, MM = Missing Value Source: NWS Daily Summary

Daily Weather History Graph

Daily Weather History Graph

Search for Another Location

Airport:

Trip Planner

Search our weather history database for the weather conditions in past years. The results will help you decide how hot, cold, wet, or windy it might be!

Date:

Astronomy

Dec. 28, 2013 Rise Set
Actual Time 8:04 AM PST 4:27 PM PST
Civil Twilight 7:27 AM PST 5:04 PM PST
Nautical Twilight 6:47 AM PST 5:43 PM PST
Astronomical Twilight 6:10 AM PST 6:21 PM PST
Moon 3:36 AM PST (12/28) 1:31 PM PST (12/28)
Length of Visible Light 9h 36m
Length of Day
8h 23m
Waning Crescent, 18% of the Moon is Illuminated
Dec 28
Waning Crescent
Jan 1
New
Jan 7
First Quarter
Jan 15
Full
Jan 23
Last Quarter

Hourly Weather History & Observations

Time (PST) Temp. Windchill Dew Point Humidity Pressure Visibility Wind Dir Wind Speed Gust Speed Precip Events Conditions
12:09 AM 37.0 °F 32.4 °F 34.0 °F 89% 30.36 in 10.0 mi SW 5.8 mph - N/A   Mostly Cloudy
12:53 AM 39.9 °F 35.8 °F 35.1 °F 83% 30.39 in 10.0 mi SW 5.8 mph - N/A   Overcast
1:53 AM 37.9 °F 32.1 °F 34.0 °F 86% 30.42 in 10.0 mi SW 8.1 mph - N/A   Mostly Cloudy
2:12 AM 37.9 °F 32.7 °F 35.1 °F 89% 30.41 in 10.0 mi SW 6.9 mph - N/A   Overcast
2:29 AM 37.9 °F - 35.1 °F 89% 30.42 in 10.0 mi Calm Calm - N/A   Overcast
2:44 AM 37.9 °F 33.5 °F 35.1 °F 89% 30.42 in 10.0 mi SSW 5.8 mph - N/A   Overcast
2:53 AM 37.0 °F 32.4 °F 35.1 °F 93% 30.44 in 10.0 mi SW 5.8 mph - N/A   Overcast
3:26 AM 37.0 °F 31.6 °F 33.1 °F 86% 30.43 in 10.0 mi SW 6.9 mph - N/A   Scattered Clouds
3:53 AM 36.0 °F 29.0 °F 33.1 °F 89% 30.44 in 10.0 mi WSW 9.2 mph - N/A   Partly Cloudy
4:44 AM 36.0 °F 32.1 °F 33.1 °F 89% 30.45 in 10.0 mi WSW 4.6 mph - N/A   Mostly Cloudy
4:53 AM 35.1 °F 29.3 °F 33.1 °F 92% 30.45 in 10.0 mi WSW 6.9 mph - N/A   Mostly Cloudy
5:13 AM 35.1 °F 28.6 °F 32.0 °F 89% 30.44 in 10.0 mi WSW 8.1 mph - N/A   Scattered Clouds
5:53 AM 35.1 °F - 32.0 °F 89% 30.47 in 10.0 mi Calm Calm - N/A   Clear
6:53 AM 34.0 °F - 30.9 °F 89% 30.47 in 10.0 mi North - - N/A   Clear
7:53 AM 34.0 °F - 30.9 °F 89% 30.48 in 10.0 mi North - - N/A   Clear
8:53 AM 35.1 °F - 32.0 °F 89% 30.49 in 10.0 mi North - - N/A   Clear
9:28 AM 35.1 °F - 33.1 °F 92% 30.50 in 10.0 mi North - - N/A   Mostly Cloudy
9:53 AM 37.9 °F - 35.1 °F 89% 30.52 in 10.0 mi North - - N/A   Overcast
10:53 AM 42.1 °F - 37.0 °F 82% 30.53 in 10.0 mi Calm Calm - N/A   Overcast
11:53 AM 45.0 °F 43.5 °F 37.0 °F 74% 30.51 in 10.0 mi ENE 3.5 mph - N/A   Overcast
12:53 PM 45.0 °F 42.6 °F 37.9 °F 76% 30.51 in 10.0 mi East 4.6 mph - N/A   Overcast
1:53 PM 45.0 °F 43.5 °F 37.9 °F 76% 30.51 in 10.0 mi East 3.5 mph - N/A   Overcast
2:53 PM 45.0 °F 42.6 °F 37.9 °F 76% 30.51 in 10.0 mi ESE 4.6 mph - N/A   Overcast
3:53 PM 44.1 °F 42.5 °F 37.9 °F 79% 30.52 in 10.0 mi ESE 3.5 mph - N/A   Overcast
4:53 PM 42.1 °F 40.2 °F 37.9 °F 85% 30.52 in 10.0 mi SE 3.5 mph - N/A   Overcast
5:53 PM 39.9 °F - 37.0 °F 89% 30.52 in 10.0 mi Calm Calm - N/A   Overcast
6:15 PM 39.0 °F 35.7 °F 36.0 °F 89% 30.51 in 10.0 mi South 4.6 mph - N/A   Scattered Clouds
6:53 PM 36.0 °F - 35.1 °F 97% 30.51 in 10.0 mi Calm Calm - N/A   Clear
7:53 PM 36.0 °F - 35.1 °F 97% 30.53 in 10.0 mi Calm Calm - N/A   Overcast
8:53 PM 37.0 °F 34.5 °F 35.1 °F 93% 30.53 in 10.0 mi WSW 3.5 mph - N/A   Overcast
9:53 PM 37.0 °F - 35.1 °F 93% 30.52 in 8.0 mi Calm Calm - N/A   Overcast
10:53 PM 37.0 °F 34.5 °F 35.1 °F 93% 30.50 in 10.0 mi SSE 3.5 mph - N/A   Partly Cloudy
11:53 PM 34.0 °F 31.0 °F 33.1 °F 96% 30.48 in 10.0 mi SSW 3.5 mph - N/A   Clear